sat.trackr.live / text

‹ back to catalog

STARLINK-31147

NORAD 58681 · 2023-211Q

PAYLOAD ACTIVE UNKNOWN

§ Identity

Operator
Country
US
Launch date
2023-12-29
Launch site
AFETR
Launch vehicle
Mass (kg)
RCS (m²)

Purposes: comms

External: N2YO · Heavens-Above · Gunter

§ Orbital elements

Epoch: 2026-05-24T23:59:45.699072Z

Period
94.27 min
Inclination
43.0026°
Eccentricity
0.0001395
Mean motion
15.27592225 rev/d
Perigee alt
482.1 km
Apogee alt
484.0 km
Semi-major
6,861.1 km
B*
1.1981e-4
RAAN
14.4612°
Arg perigee
276.6134°
Mean anomaly
83.4559°
Rev number
13,413

§ Raw data

STARLINK-311471 58681U 23211Q   26144.99983448  .00003037  00000+0  11981-3 0  99932 58681  43.0026  14.4612 0001395 276.6134  83.4559 15.27592225134136

JSON: /api/v1/satellites/58681 · /tle

For live sub-satellite position, see the globe view (requires WebGL).

§ Visibility from observer

Set your observer location to see the next 7 days of passes ≥ 10°. The values pass through the URL so the page stays shareable.

No JS? Fill the form by hand. The geolocation button needs JavaScript.